Location: Ammerl�gen
(47.2167°N, 9.6000°E)
Time: 20:46:27
(UTC+00:00)

DMSP 5D-2 F13 DEB - Pass Details

Date: 25 October 2021
Orbit: 758 x 780 km, 98.7° (Epoch: 03 December)

Event Time Altitude Azimuth Distance (km) Brightness Sun altitude
Exits shadow 17:11:24 10° 58° (ENE) 2,291 ? -10.0°
Maximum altitude 17:11:58 10° 52° (NE) 2,278 ? -10.1°
Drops below altitude 10° 17:12:43 10° 43° (NE) 2,301 ? -10.2°
Sets 17:17:22 0° 4° (N) 3,230 ? -11.0°
